Time,TemperatureF,DewpointF,PressureIn,WindDirection,WindDirectionDegrees,WindSpeedMPH,WindSpeedGustMPH,Humidity,HourlyPrecipIn,Conditions,Clouds,dailyrainin,SoftwareType,DateUTC
2013-01-10 00:00:00,54.5,53.1,30.36,ENE,76,0.0,0.0,95,0.00,,,0.00,Wunderground v.1.15,2013-01-10 05:00:00,
2013-01-10 00:10:00,54.4,53.0,30.36,ENE,76,0.0,0.0,95,0.00,,,0.00,Wunderground v.1.15,2013-01-10 05:10:00,
2013-01-10 00:15:00,54.4,53.0,30.36,ENE,76,0.0,0.0,95,0.00,,,0.00,Wunderground v.1.15,2013-01-10 05:15:00,
2013-01-10 00:20:00,54.3,52.9,30.36,ENE,76,0.0,0.0,95,0.00,,,0.00,Wunderground v.1.15,2013-01-10 05:20:00,
2013-01-10 00:30:00,54.2,52.8,30.36,ENE,76,0.0,0.0,95,0.00,,,0.00,Wunderground v.1.15,2013-01-10 05:30:00,
2013-01-10 00:40:00,54.2,53.1,30.36,ENE,76,0.0,0.0,96,0.00,,,0.00,Wunderground v.1.15,2013-01-10 05:40:00,
2013-01-10 00:50:00,54.1,53.0,30.37,ENE,76,0.0,0.0,96,0.00,,,0.00,Wunderground v.1.15,2013-01-10 05:50:00,
2013-01-10 00:55:00,54.0,52.9,30.37,ENE,76,0.0,0.0,96,0.00,,,0.00,Wunderground v.1.15,2013-01-10 05:55:00,
2013-01-10 01:05:00,53.8,52.7,30.37,ENE,76,0.0,1.0,96,0.00,,,0.00,Wunderground v.1.15,2013-01-10 06:05:00,
2013-01-10 01:10:00,53.8,52.7,30.37,ENE,76,0.0,0.0,96,0.00,,,0.00,Wunderground v.1.15,2013-01-10 06:10:00,
2013-01-10 01:20:00,53.6,52.5,30.37,ENE,76,0.0,0.0,96,0.00,,,0.00,Wunderground v.1.15,2013-01-10 06:20:00,
2013-01-10 01:25:00,53.6,52.5,30.37,ENE,76,0.0,0.0,96,0.00,,,0.00,Wunderground v.1.15,2013-01-10 06:25:00,
2013-01-10 01:30:00,53.6,52.5,30.37,ENE,76,0.0,0.0,96,0.00,,,0.00,Wunderground v.1.15,2013-01-10 06:30:00,
2013-01-10 01:40:00,53.7,52.9,30.37,ENE,76,0.0,0.0,97,0.00,,,0.00,Wunderground v.1.15,2013-01-10 06:40:00,
2013-01-10 01:55:00,54.1,53.3,30.37,ENE,76,0.0,0.0,97,0.00,,,0.00,Wunderground v.1.15,2013-01-10 06:55:00,
2013-01-10 02:05:00,54.3,53.5,30.37,ENE,76,0.0,0.0,97,0.00,,,0.00,Wunderground v.1.15,2013-01-10 07:05:00,
2013-01-10 02:15:00,54.4,53.6,30.37,ENE,76,0.0,0.0,97,0.00,,,0.00,Wunderground v.1.15,2013-01-10 07:15:00,
2013-01-10 02:25:00,54.4,53.6,30.37,ENE,76,0.0,0.0,97,0.00,,,0.00,Wunderground v.1.15,2013-01-10 07:25:00,
2013-01-10 02:30:00,54.3,53.5,30.38,ENE,76,0.0,0.0,97,0.00,,,0.00,Wunderground v.1.15,2013-01-10 07:30:00,
2013-01-10 02:40:00,54.3,53.5,30.38,ENE,76,0.0,0.0,97,0.00,,,0.00,Wunderground v.1.15,2013-01-10 07:40:00,
2013-01-10 02:50:00,54.4,53.6,30.38,ENE,76,0.0,0.0,97,0.00,,,0.00,Wunderground v.1.15,2013-01-10 07:50:00,
2013-01-10 03:00:00,54.6,54.0,30.38,ENE,76,0.0,0.0,98,0.00,,,0.00,Wunderground v.1.15,2013-01-10 08:00:00,
2013-01-10 03:10:00,54.8,54.2,30.38,ENE,76,0.0,0.0,98,0.00,,,0.00,Wunderground v.1.15,2013-01-10 08:10:00,
2013-01-10 03:15:00,54.8,54.2,30.38,ENE,76,0.0,0.0,98,0.00,,,0.00,Wunderground v.1.15,2013-01-10 08:15:00,